Flag for Saint Kitts and Nevis Weather past 2 weeks in Basseterre, Saint Kitts and Nevis

Now
82 °F

Passing clouds.


Feels Like: 88 °F
Forecast: 80 / 84 °F
Wind: 16 mph from East

Location: Golden Rock

Current Time: Jul 31, 2015 at 8:28:35 PM

Latest Report: Jul 31, 2015 at 7:00 PM


Visibility: N/A

Pressure: 30.01 "Hg

Humidity: 74%

Dew point: 73 °F

Location of BasseterreLocation

Historic Weather in Basseterre — Graph

°F

Basseterre temperature yesterday

Maximum temperature yesterday: 90 °F (at 1:00 PM)
Minimum temperature yesterday: 81 °F (at 6:00 AM)
Average temperature yesterday: 85 °F

Past Weeks' High & Low Weather Summary

 TemperatureHumidityPressure
High90 °F (Jul 20, 12:00 PM)94% (Jul 20, 6:00 PM)30.12 "Hg (Jul 20, 6:00 PM)
Low79 °F (Jul 17, 6:00 AM)59% (Jul 25, 12:00 PM)29.83 "Hg (Jul 21, 8:00 PM)
Average84 °F72%30.04 "Hg
* Reported Jul 16 7:00 PM — Jul 31 7:00 PM, Basseterre, Weather by CustomWeather, © 2015

Note: Actual official high and low records may vary slightly from our data, if they occured in-between our weather recording intervals... More about our weather records

Advertising

Basseterre weather history for previous 24 hours

 ConditionsComfort  
Time TempWeatherWind HumidityBarometerVisibility
7:00 PM
Fri, Jul 31
82 °FPassing clouds.16 mph74%30.01 "HgN/A
6:00 PM84 °FPassing clouds.13 mph70%30.01 "HgN/A
5:00 PM86 °FPassing clouds.18 mph66%30.01 "HgN/A
4:00 PM86 °FPassing clouds.21 mph62%30.01 "HgN/A
3:00 PM88 °FPassing clouds.21 mph59%30.04 "HgN/A
2:00 PM86 °FPartly sunny.21 mph70%30.04 "HgN/A
1:00 PM88 °FPassing clouds.13 mph75%30.07 "HgN/A
12:00 PM88 °FPassing clouds.14 mph66%30.07 "HgN/A
11:00 AM88 °FPassing clouds.17 mph62%30.07 "HgN/A
10:00 AM86 °FScattered clouds.16 mph70%30.07 "HgN/A
9:00 AM84 °FPassing clouds.16 mph79%30.07 "HgN/A
8:00 AM81 °FPartly sunny.17 mph89%30.07 "HgN/A
7:00 AM79 °FSprinkles. Scattered clouds.12 mph94%30.04 "HgN/A
10:00 PM
Thu, Jul 30
82 °FPassing clouds.13 mph79%30.07 "HgN/A
9:00 PM82 °FPartly cloudy.13 mph74%30.04 "HgN/A
8:00 PM82 °FPartly cloudy.16 mph79%30.04 "HgN/A
Weather by CustomWeather, © 2015

See weather overviewHow to use our weather pages